ARIANE 44LP DEB, 33542

Orbit data source: Space-Track

ARIANE 44LP DEB, 33542 is space debris in HEO originally from a launch on Sun, 11 Dec 1988 UTC launched from the French Guiana (FRGUI). Debris objects in space refer to the collection of defunct objects orbiting the Earth. Examples of debris include non-operational satellites, rocket bodies, and fragments generated from explosions, collisions, or faulty payload assembly.

Loading next visibility...
Identifier
33542, 1988-109R
Orbit
HEO
Country
Flag of FRFR
Related business
Manufacturer
Unknown
Mission
Spacecraft
Bus & Motor
Unknown
Mass
Unknown
Launch date (UTC)
1988-12-11 (38 years ago)
Launch vehicle
Unknown
Launch site
French Guiana (FRGUI)
Object type
Payload
Rocket body
Debris
Shape & HBR
Unknown shape, 1.1 m
Radar Cross Section
Medium (>0.1 m² and <1 m²)

Expand to show TLE details & history
Last TLE update: 3 days ago

TLE from 3 days ago
0 ARIANE 44LP DEB
1 33542U 88109R   26254.70169394 -.00000150  00000-0  13994-2 0  9996
2 33542   6.7203 172.7228 7113221 179.5614 352.7419  2.24349100173531
Epoch: 2026-09-11T16:50Z
TLE epoch observation values (Epoch: 2026-09-11T16:50:26.356Z)
Latitude
5.53117°
Longitude
55.26435°
Altitude
2,166.11 km
Speed
8.782 km/s
True Right ascension
19h 54m 22s
True Declination
5° 30' 13"
Sunlit
Object was in daylight at epoch
Visualization orbit readout
Latitude
Unknown
Longitude
Unknown
Altitude
Unknown
Speed
Unknown
Apparent Right ascension
Unknown
Apparent Declination
Unknown
Sunlit
N/A
Visualization observer readout
Local Sidereal Time
08:32:46
Azimuth
Unknown
Elevation
Unknown
Doppler factor
Unknown
Orbital elements
Apogee altitude
35,811.565 km
Perigee altitude
738.72 km
Semi-major axis
24,653.279 km
Eccentricity
0.71132
Inclination
6.7203°
RAAN
172.7228°
Arg. of periapsis
179.5614°
True anomaly
306.22682°
Mean anomaly
352.7419°
Eccentric anomaly
336.47291°
Mean motion
0.5607 °/min
Orbital period
642.05 mins
BSTAR
0.0013994
Loading maneuver chart data...
Computing Atmospheric mass density...
Loading historical data...
Loading historical data...
Loading historical data...
Loading historical data...
Loading historical data...
Loading historical data...
Loading historical data...

Documentation

Showing up to 5 results
|